OCEANSAT 2

Last updated on Thu Jun 22 2017 00:17:33 GMT+0000 (Coordinated Universal Time)

1 35931U 09051A 17172.44262936 .00000052 00000-0 24255-4 0 9999 2 35931 98.3095 266.9728 0002902 147.9801 212.1571 14.50835314409972

Satellite not in orbit

OCEANSAT 2